Regional Weather Roundup
Issued by NWS

Home | Current Version | Previous Version | Text Only | Print | Product List | Glossary On
Versions: 1 2 3 4 5 6 7 8 9 10 11 12 13 14 15 16 17 18 19 20 21 22 23 24 25 26 27 28 29 30 31 32 33 34 35 36 37 38 39 40 41 42 43 44 45 46 47 48 49 50
000
ASUS45 KSLC 030110
RWRUT

UTAH REGIONAL WEATHER ROUNDUP
NATIONAL WEATHER SERVICE SALT LAKE CITY UT
600 PM MST FRI DEC 02 2016

UTZ001>011-023>025-030200-

NORTHERN UTAH

CITY           SKY/WX    TMP DP  RH WIND       PRES   REMARKS
BRIGHAM CITY     N/A     30  20  64 CALM      30.26S
HILL AFB       CLEAR     28  18  66 CALM      30.24S
LOGAN          PTCLDY   N/A N/A N/A N8        30.26R
OGDEN          PTCLDY    30  19  63 CALM      30.24S
SALT LAKE CITY PTCLDY    33  22  63 N8        30.26R WCI  26
TOOELE VALLEY  PTCLDY    19  18  93 S6        30.27S WCI  11
WENDOVER       CLEAR     32  14  47 SW3       30.28R
HEBER CITY     PTCLDY    18  12  79 E6        30.19S WCI   9
WEST JORDAN    CLEAR     28  24  82 W6        30.26R WCI  22

$$

UTZ011>015-024>027-030200-

CENTRAL/NORTHEAST UTAH

CITY           SKY/WX    TMP DP  RH WIND       PRES   REMARKS
PROVO AIRPORT  PTCLDY    31  22  69 NW9       30.25R WCI  23
MOAB/CANYONLAN CLOUDY    38  15  39 NE9       30.12R WCI  31
DELTA          PTCLDY    28  19  69 N8        30.24R WCI  20
PRICE          PTCLDY    27  12  53 N7        30.13R WCI  19
RICHFIELD      CLOUDY    28  21  74 N3        30.22
ROOSEVELT      CLEAR     28  16  59 W5        30.20S WCI  23
VERNAL         CLEAR     28  13  53 E7        30.19R WCI  21

$$

UTZ013>016-019>022-027-030200-

SOUTHERN UTAH

CITY           SKY/WX    TMP DP  RH WIND       PRES   REMARKS
BRYCE CANYON   NOT AVBL
CEDAR CITY     MOCLDY    26  17  68 N14       30.16R WCI  14
MILFORD        PTCLDY    29  20  69 N10       30.21R WCI  20
ST GEORGE      PTCLDY    45  16  31 NE16      30.14S
HANKSVILLE     CLOUDY    37  12  35 N7        30.16R WCI  32
KANAB          MOCLDY    36  14  41 N21       30.13  WCI  24
BLANDING       CLOUDY    32  20  61 NW5       30.13R WCI  27

$$

REGIONAL REPORTS     COLORADO/ARIZONA

CITY           SKY/WX    TMP DP  RH WIND       PRES   REMARKS
CRAIG, CO      CLOUDY    23  15  71 W7        30.17R WCI  15
GRAND JUNCTION CLOUDY    35  18  49 NE12      30.13R WCI  27
RIFLE, CO      CLOUDY    31  20  63 NW9       30.14R WCI  23
MONTROSE, CO   FLURRIES  30  22  72 NW5       30.14R WCI  25
CORTEZ, CO     CLOUDY    32  24  72 CALM      30.03R
COLORADO CITY  CLOUDY    36  21  55 NW12      30.11R WCI  27
PAGE, AZ       CLEAR     41  13  31 NE3       30.07R
GRAND CANYON   CLOUDY    30  17  58 NE6       30.04R WCI  24
KINGMAN, AZ    PTCLDY    43  13  29 N20G28    30.03R
FLAGSTAFF, AZ  MOCLDY    27  19  72 NE6       29.99R WCI  20

$$

REGIONAL REPORTS    NEVADA/IDAHO/WYOMING

CITY           SKY/WX    TMP DP  RH WIND       PRES   REMARKS
LAS VEGAS, NV    N/A     51  11  20 N16       30.14R
ELY, NY        PTCLDY    22  11  62 N12       30.21R WCI  10
ELKO, NV       CLEAR     25  16  68 SW5       30.28S WCI  19
POCATELLO, ID  CLOUDY    26  22  84 S6        30.30R WCI  19
BURLEY, ID     PTCLDY    27  22  81 W5        30.28S WCI  22
FORT BRIDGER,    N/A     20  11  66 W6        30.19S WCI  13
EVANSTON, WY   CLEAR     20   7  57 NW5       30.17R WCI  13
ROCK SPRINGS,  CLEAR     15  10  80 W8        30.15S WCI   4

$$



USA.gov is the U.S. government's official web portal to all federal, state and local government web resources and services.